Regional Weather Roundup
Issued by NWS

Home | Current Version | Previous Version | Text Only | Print | Product List | Glossary On
Versions: 1 2 3 4 5 6 7 8 9 10 11 12 13 14 15 16 17 18 19 20 21 22 23 24 25 26 27 28 29 30 31 32 33 34 35 36 37 38 39 40 41 42 43 44 45 46 47 48 49 50
000
ASHW40 PHFO 291443
RWRHI

WEATHER ROUNDUP FOR HAWAII
NATIONAL WEATHER SERVICE HONOLULU HI
400 AM HST TUE JUL 29 2014

THIS IS AN AUTOMATED REPORT THAT HAS NOT BEEN QUALITY CONTROLLED.

NOTE..."FAIR" INDICATES FEW OR NO CLOUDS BELOW 12,000 FEET WITH NO
SIGNIFICANT WEATHER AND/OR OBSTRUCTIONS TO VISIBILITY.

* - THESE SITES REPORT LIMITED FIELDS

HIZ001>004-291500-
KAUAI-NIIHAU-

CITY           SKY/WX    TMP DP  RH WIND       PRES   REMARKS
LIHUE APT      MOCLDY    77  68  73 E8        30.05S
PORT ALLEN*      N/A     77 N/A N/A NE10        N/A
POIPU*           N/A     77 N/A N/A NE7G13      N/A
PRINCEVILLE*   NOT AVBL
KOKOLE POINT*  NOT AVBL
MOLOAA DAIRY*  NOT AVBL
WAIMEA HTS*      N/A     73  59  60 VRB3        N/A
PUU OPAE*        N/A     66  63  88 CALM        N/A
PUU LUA*       NOT AVBL
MAKAHA RIDGE*  NOT AVBL
$$

HIZ005>011-291500-
OAHU-

CITY           SKY/WX    TMP DP  RH WIND       PRES   REMARKS
HONOLULU       PTCLDY    78  67  68 NE6       30.02S
KALAELOA       CLEAR     71  66  84 CALM      30.03F
KANEOHE MCB    PTCLDY    72  67  85 E8        30.03F
WHEELER FIELD  FAIR      71  67  85 NW3       30.04S
BELLOWS*         N/A    N/A N/A N/A NE15        N/A
KAHUKU*          N/A    N/A N/A N/A E8G15       N/A
WHEELER*       NOT AVBL
WAIANAE HARBOR NOT AVBL
DILLINGHAM*      N/A     64  64 100 CALM        N/A
KAHUKU TRN*      N/A     73  68  83 E10G18      N/A
KAWAILOA*      NOT AVBL
KII*             N/A     79  70  73 CALM        N/A
MAKUA RANGE*     N/A     72  64  78 SE3         N/A
OAHU FOREST NW   N/A     66  66 100 NE17G28     N/A
SCHOFIELD BRK*   N/A     70  66  88 MISG        N/A
SCHOFIELD S*   NOT AVBL
WAIANAE VLY*     N/A     70  64  83 NE3         N/A
KUAOKALA*        N/A     72  63  73 CALM        N/A
HONOULIUULI*   NOT AVBL
MOKUOLOE IS*     N/A    N/A N/A N/A MISG        N/A
PALEHUA*         N/A     81  70  69 CALM        N/A
WAIAWA PHB*    NOT AVBL
$$

HIZ012>013-291500-
MOLOKAI-

CITY           SKY/WX    TMP DP  RH WIND       PRES   REMARKS
MOLOKAI AIRPT  CLEAR     70  68  93 N5        30.03S
KALAUPAPA      NOT AVBL
MAKAPULAPAI*     N/A     77  70  78 E16G24      N/A
MOLOKAI 1*       N/A     64  59  82 E2G16       N/A
PUU ALII*        N/A     59  58  95 SE3G14      N/A
$$

HIZ016-291500-
KAHOOLAWE-

CITY           SKY/WX    TMP DP  RH WIND       PRES   REMARKS
KAHOOLAWE*       N/A     70 N/A N/A E15G25      N/A
HAKIOAWA*        N/A     71  64  77 MISG      30.14S
HONOKANAIA*      N/A     78  69  73 NE13G26   30.02S
KANELOA*         N/A     75  68  78 E17G29    30.12S
KEALIALALO*      N/A    N/A N/A N/A E15G25    30.32S
LUA MAKIKA*    NOT AVBL
$$

HIZ014>015-291500-
LANAI-

CITY           SKY/WX    TMP DP  RH WIND       PRES   REMARKS
LANAI CITY     FAIR      69  69 100 NE5       30.07F
LANAI 1*         N/A     70  70 100 NE12G17     N/A
$$

HIZ017>028-291500-
MAUI-

CITY           SKY/WX    TMP DP  RH WIND       PRES   REMARKS
KAHULUI        CLEAR     67  64  90 CALM      30.01F
KAPALUA-W MAUI NOT AVBL
HANA AIRPORT   MOCLDY    72  68  88 CALM      30.06S
HANA*            N/A     73 N/A N/A SE3         N/A
HALEAKALA SUMM   N/A     41  27  56 NW5G20      N/A
MAALAEA BAY*   NOT AVBL
HALEAKALA*     NOT AVBL
KAUPO GAP*       N/A     57  52  82 W5          N/A
KULA 1*          N/A    N/A N/A N/A E8          N/A
$$

HIZ023>026-291500-
BIG ISLAND OF HAWAII COAST AND LOWER SLOPES-

CITY           SKY/WX    TMP DP  RH WIND       PRES   REMARKS
KAILUA KONA    MOCLDY    79  72  79 E3        29.97S
HILO           PTCLDY    71  67  87 SW3       30.03F
HONOKAA*       NOT AVBL
KAWAIHAE MWT*    N/A     79 N/A N/A NE9         N/A
KAWAIHAE*        N/A     79 N/A N/A NE6         N/A
SOUTH POINT*     N/A     70 N/A N/A NE16        N/A
UPOLU AIRPORT*   N/A    N/A N/A N/A E15G23      N/A
KAMUELA*       SUNNY     61  59  94 N16       30.12S
HAKALAU*         N/A     45  34  65 W6          N/A
KALOKO-HONOKO*   N/A     75  72  88 E2G8      29.97S
PALI 2*          N/A     64  59  82 N13G24      N/A
KEALAKOMO*       N/A     75  66  73 NE9G15      N/A
KAUPULEHU*       N/A    N/A N/A N/A SE6         N/A
KAPAPALA*        N/A     59  56  91 CALM        N/A
LOWER KAHUKU*  NOT AVBL
PUHE CS*       NOT AVBL
PUHO CS*         N/A     73  73 100 NE3         N/A
PTA KEAMUKU*     N/A     61  54  77 SE5         N/A
WAIKOLOA*        N/A     70  59  68 E12G20      N/A
$$

HIZ027>028-291500-
BIG ISLAND OF HAWAII INTERIOR AND SUMMMITS-

CITY           SKY/WX    TMP DP  RH WIND       PRES   REMARKS
BRADSHAW FIELD CLOUDY    52  33  49 SE2       30.35S
MK VISITOR CEN NOT AVBL
MAUNA KEA*       N/A     37 -20   8 SE6         N/A
MAUNA LOA*       N/A     36   1  23 MISG        N/A
MAUNA LOA 1*     N/A    N/A N/A N/A MISG        N/A
PTA KIPUKA*      N/A     54  50  87 SE3         N/A
PTA RANGE 17*    N/A     54  41  62 E5          N/A
PTA WEST*        N/A     54  48  82 SE10        N/A
NENE CABIN*    NOT AVBL
AHUMOA*          N/A     52  36  55 E3          N/A
PTA PORTABLE*  NOT AVBL
PUU MALI*      NOT AVBL
$$

HIC003-291500-
NORTHWEST ISLANDS-

CITY           SKY/WX    TMP DP  RH WIND       PRES   REMARKS
MIDWAY ISLAND  PTCLDY    81  75  83 S16       30.02S
MIDWAY NOS*    NOT AVBL
FRENCH FRIGATE NOT AVBL
$$

PHZ110>124-180-291500-
BUOY REPORTS

STATION/POSITION TIME  TEMP    WIND        PRES    WAVE   SWELL
                       AIR SEA DIR/SP/G            HT/PER HT/DIR
                 (UTC) (F)     (DEG/KT/KT) (MB)    (FT/S) (FT/D)
BUOY 51001       NOT AVBL
BUOY 51101       1400   79 80   80/ 12/ 14 1017.7F   4/ 9   3/100
BUOY 51100       1400   77 78   90/ 10/ 12 1017.9F
BUOY 51003       1400   80 81   50/ 12/ 14 1015.7S   7/ 9   7
BUOY 51004       1330   79 80   70/ 14/ 17 1014.2F   8/ 9   7/110
BARBERS PT BUOY  NOT AVBL
WAIMEA BAY BUOY  1400      80                N/A     2/13   2/270
KAILUA BAY BUOY  1400      80                N/A     5/10
LANAI BUOY       1400      81                N/A     2/15   2/220
BARBERS PT 2     1400      81                N/A     4/ 6   2/200
PAUWELA MAUI     1400      79                N/A     5/ 9   2/ 90
HILO             NOT AVBL
KANEOHE BAY BUOY 1400      79                N/A     4/ 6
HANALEI KAUAI    NOT AVBL
KAHULUI HARBOR   1400   74 80   20/  3/  5 1016.1S
HONOLULU HARBOR  1400   78      80/  1/  4 1016.9R
KILO NALU        NOT AVBL
HILO HARBOR      1400   72     200/  3/  5 1016.5F
MOKUOLOE         1400   78 82   80/  6/  8 1017.2S
NAWILIWILI       1400      82                N/A
WHOTS BUOY       NOT AVBL
BUOY 51028       NOT AVBL
$$

......................KEY........................................
  SKY/WX - SKY CONDITIONS/PRESENT WEATHER
  TMP    - TEMPERATURE IN FAHRENHEIT
  DWPT   - DEWPOINT IN FAHRENHEIT
  RH     - RELATIVE HUMIDITY IN PERCENT
  WIND   - DIRECTION AND SPEED /MPH FOR ISLANDS...KTS FOR BUOYS/
  PRES   - MEAN SEA LEVEL PRESSURE IN INCHES OF HG
  VSB    - VISIBILITY IN MILES
  HX     - HEAT INDEX
  WCI    - WIND CHILL INDEX
  VRB    - VARIABLE WIND DIRECTION
  N/A    - NOT AVAILABLE



USA.gov is the U.S. government's official web portal to all federal, state and local government web resources and services.